Weather History for Hamilton, ON

Change the Weather History Date:

Monday, August 12, 2013

  Actual Average Record
Temperature  
Mean Temperature 66 °F -  
Max Temperature 75 °F - - ()
Min Temperature 56 °F - - ()
Growing Degree Days 16 (Base 50)    
Moisture  
Dew Point 60 °F    
Average Humidity 81    
Maximum Humidity 94    
Minimum Humidity 66    
Precipitation  
Precipitation 0.00 in - - ()
Sea Level Pressure  
Sea Level Pressure 29.95 in    
Wind  
Wind Speed 2 mph ()    
Max Wind Speed 5 mph    
Max Gust Speed -    
T = Trace of Precipitation, MM = Missing Value Source: Averaged Metar Reports

Daily Weather History Graph

Daily Weather History Graph

Search for Another Location

Airport:

Trip Planner

Search our weather history database for the weather conditions in past years. The results will help you decide how hot, cold, wet, or windy it might be!

Date:

Astronomy

Aug. 12, 2013 Rise Set
Actual Time 6:21 AM EDT 8:26 PM EDT
Civil Twilight 5:50 AM EDT 8:57 PM EDT
Nautical Twilight 5:12 AM EDT 9:35 PM EDT
Astronomical Twilight 4:30 AM EDT 10:17 PM EDT
Moon 12:22 PM EDT (8/12) 11:05 PM EDT (8/12)
Length of Visible Light 15h 06m
Length of Day
14h 04m
Waxing Crescent, 31% of the Moon is Illuminated
Aug 12
Waxing Crescent
Aug 14
First Quarter
Aug 20
Full
Aug 28
Last Quarter
Sep 5
New

Hourly Weather History & Observations

Time (EDT) Temp. Dew Point Humidity Pressure Visibility Wind Dir Wind Speed Gust Speed Precip Events Conditions
12:00 AM 63.9 °F 58.3 °F 82% 30.03 in - West 2.3 mph - N/A   Unknown
1:00 AM 63.7 °F 58.6 °F 84% 30.03 in - WNW 1.2 mph - N/A   Unknown
2:00 AM 62 °F 58 °F 83% 30.02 in - West 3.5 mph - -  
2:00 AM 62.1 °F 58.1 °F 87% 30.02 in - West 3.5 mph - N/A   Unknown
3:00 AM 59.0 °F 56.5 °F 91% 30.01 in - West 1.2 mph - N/A   Unknown
4:00 AM 57.6 °F 55.6 °F 93% 30.01 in - Calm Calm - N/A   Unknown
5:00 AM 57.2 °F 55.6 °F 94% 30.00 in - WSW 1.2 mph - N/A   Unknown
6:00 AM 57.0 °F 54.9 °F 92% 30.01 in - WNW 3.5 mph - N/A   Unknown
7:00 AM 57.0 °F 55.4 °F 94% 30.00 in - West 1.2 mph - N/A   Unknown
8:00 AM 62 °F 59 °F 87% 30.01 in - Calm Calm - -  
8:00 AM 61.7 °F 59.0 °F 91% 30.01 in - Calm Calm - N/A   Unknown
9:00 AM 64.2 °F 59.0 °F 83% 30.00 in - West 1.2 mph - N/A   Unknown
10:00 AM 65.5 °F 61.3 °F 86% 29.99 in - Calm Calm - N/A   Unknown
11:00 AM 68.0 °F 60.3 °F 76% 29.99 in - West 1.2 mph - N/A   Unknown
12:00 PM 70.9 °F 60.1 °F 69% 29.97 in - South 1.2 mph - N/A   Unknown
1:00 PM 72.3 °F 61.0 °F 67% 29.95 in - SE 1.2 mph - N/A   Unknown
2:00 PM 72.3 °F 61.9 °F 70% 29.94 in - East 2.3 mph - N/A   Unknown
3:00 PM 70.9 °F 63.5 °F 77% 29.93 in - SW 2.3 mph - N/A   Unknown
4:00 PM 73.2 °F 64.9 °F 75% 29.90 in - SW 3.5 mph - N/A   Unknown
5:00 PM 73.2 °F 63.0 °F 70% 29.88 in - West 4.6 mph - N/A   Unknown
6:00 PM 74.3 °F 63.5 °F 69% 29.86 in - WSW 3.5 mph - N/A   Unknown
7:00 PM 73.0 °F 62.4 °F 69% 29.85 in - WSW 3.5 mph - N/A   Unknown
8:00 PM 71 °F 62 °F 66% 29.83 in - SW 2.3 mph - -  
8:00 PM 70.7 °F 62.1 °F 74% 29.83 in - SW 2.3 mph - N/A   Unknown
9:00 PM 68.2 °F 61.7 °F 80% 29.83 in - WSW 2.3 mph - N/A   Unknown
10:00 PM 66.2 °F 61.9 °F 86% 29.83 in - West 2.3 mph - N/A   Unknown
11:00 PM 65.8 °F 62.2 °F 88% 29.83 in - West 2.3 mph - N/A   Unknown